Location: Unspecified
(0.0000°N, 0.0000°E)
Time: 18:23:26
(UTC+00:00)

Vanguard 2 Rocket - Pass Details

Date: 19 January 2020
Orbit: 554 x 3327 km, 32.9° (Epoch: 20 February)

Event Time Altitude Azimuth Distance (km) Brightness Sun altitude
Rises 11:19:45 0° 326° (NW) 5,252 10.5 66.1°
Reaches altitude 10° 11:23:26 10° 336° (NNW) 4,636 10.4 66.6°
Maximum altitude 11:35:32 32° 35° (NE) 4,097 10.5 67.9°
Drops below altitude 10° 11:51:46 10° 90° (E) 6,264 11.4 69.1°
Sets 11:57:45 0° 99° (E) 7,305 11.6 69.4°
